Вернуться в каталог

ANGOSAT 2

АктивенСвязьGEO
NORAD 54033·PAYLOAD·🇦🇴 Angola

Запущен Oct 12, 2022 с Baikonur Cosmodrome

Loading…

TLE

СвежийSource: Space-Track

Эпоха: Sep 14, 2026, 19:02 UTC

1 54033U 22131A   26257.79356102  .00000000  00000-0  00000-0 0  9999
2 54033   0.0205 165.7008 0000694 100.1877  36.5636  1.00272199 14379

Отслеживайте ANGOSAT 2 в реальном времени с AllMySat

Download on the App Store